Погода в Таганроге

Погода в Таганроге : погода сейчас, прогноз погоды и архив. Всё, что Вы хотите узнать о погоде в Таганроге!

Хотите узнать прогноз погоды в Таганроге? Тогда Вам сюда: Погода в Таганроге

Поиск расширенной информации на нашем сайте:

Другие новости

Новости СМИ2

Главная страница сайта

Новости сайта

03.07.2017

Напоминаем, что на нашем специализированном сайте Метеоцентр.Азия вы можете получить высокодетализированные автоматические прогнозы погоды по пунктам России, СНГ и мира в авиационном формате (включающие направление и скорость ветра, видимость, явления погоды, количество и форму облачности, нижнюю и верхнюю границу облачности).

Рекомендуем: комплексное бухгалтерское обслуживание ип

Погода в Таганроге - сегодня

Время (UTC), дата Ветер
(°,м/с) 
Видим.   Явления Облачность Т
(°С)
Тd
(°С)
f(%) Тe
(°С)
Pmin
(гПа)
dP
(гПа)
Po
(мм)
O2
(г/м3)
Тmin Tmax R s Состояние
почвы
18 17.11.17 070 (В) 20000 м    1/0 верхняя 
[Ci fib]
+4.3 -0.5 71 +3  1026.6  -0.8  767  304           
21 17.11.17 090 (В) 20000 м    10/10 600 м 
[Sc]
+3.7 -0.4 75 +2  1025.8  -0.9  766  305           
00 18.11.17 070 (В) 20000 м    3/0 верхняя 
[Ci fib]
+3.3 -0.7 75 +1  1024.7  -1.1  765  305           
03 18.11.17 080 (В) 20000 м    9/9 600 м 
[St]
+2.3 -1.3 77 1023.3  -1.4  764  306  +2.2        влажная 
06 18.11.17 080 (В) 3{10}  20000 м    9/6 600 м средняя 
[St|As trans]
+2.4 -0.4 82 +1  1022.4  -0.9  764  305  +1.8         
09 18.11.17 080 (В) 20000 м    10/10 600 м 
[Sc]
+2.6 -0.1 82 +1  1021.5  -1  763  305           
12 18.11.17 090 (В) 10 км    10/10 600 м 
[Sc]
+2.8 +0.7 86 +2  1020.4  -1  762  304           
15 18.11.17 060 (СВ) 20000 м    10/10 600 м 
[Sc]
+3.1 +1.6 90 +3  1019.1  -1.3  761  303    +3.1       
18 18.11.17 030 (СВ) 20000 м    ясно 
+3.5 +1.9 89 +3  1018  -1.2  761  302           
21 18.11.17 020 (С) 20000 м    ясно 
+2.8 +1.4 90 +1  1016.8  -1.2  760  303           
00 19.11.17 050 (СВ) 20000 м    5/0 верхняя 
[Ci fib]
+3.5 +2.3 92 +3  1015.6  -1.2  759  301           
03 19.11.17 050 (СВ) 4000 м  дымка  10/10 300 м 
[St]
+2.9 +2.1 94 +2  1014.3  -1.3  758  302  +2.6        влажная 
06 19.11.17 060 (СВ) 20000 м    9/3 600 м средняя 
[St|Ac trans]
+3.8 +2.6 92 +3  1013.8  -0.5  757  301           
09 19.11.17 110 (В) 20000 м    6/0 средняя 
[Ac trans]
+6.2 +3.2 81 +6  1012.9  -0.9  757  298           
12 19.11.17 100 (В) 20000 м    10/10 300 м 
[St]
+8.3 +4.5 77 +9  1011.6  -1.3  756  295           
15 19.11.17 030 (СВ) 20000 м    10/10 300 м 
[St]
+8.2 +4.8 79 +8  1011.2  -0.3  755  295    +8.8       
18 19.11.17 050 (СВ) 20000 м    ясно 
+8.1 +5.2 82 +8  1010.5  -0.8  755  295           
21 19.11.17 040 (СВ) 20000 м    ясно 
+6.9 +4.9 87 +7  1010.1  -0.4  755  296           
00 20.11.17 360 (С) 20000 м    ясно 
+3.8 +2.6 92 +2  1009.8  -0.4  754  299           
03 20.11.17 020 (С) 10 км    6/6 600 м 
[Sc]
+4 +3.2 95 +3  1009  -0.8  754  299  +3.6        влажная 
06 20.11.17 060 (СВ) 20000 м    9/9 300 м 
[St]
+5.1 +4.3 95 +6  1008.9  754  297           
09 20.11.17 020 (С) 10 км    9/8 600 м средняя 
[Sc|Ac cuf]
+8.7 +4.8 76 +10  1007.4  -1.5  753  293           
12 20.11.17 100 (В) 10 км  {дождь}  9/8 300 м средняя 
[St|As op]
+12.8 +8.7 76 +13  1005.4  -0.2  751  288           
15 20.11.17 120 (ЮВ) 10 км  {дождь}  10/10 600 м 
[St]
+9.1 +6.5 84 +8  1004.2  -1.3  750  291      0.0     
18 20.11.17 120 (ЮВ) 10 км  {дождь}  10/8 300 м средняя 
[St|As op]
+8.6 +6.3 85 +7  1003.8  -0.4  750  292           
Время (UTC), дата Ветер
(°,м/с) 
Видим.   Явления Облачность Т
(°С)
Тd
(°С)
f(%) Тe
(°С)
Pmin
(гПа)
dP
(гПа)
Po
(мм)
O2
(г/м3)
Тmin Tmax R s Состояние
почвы

Для получения пояснительной информации подведите курсор к названию столбца.

ПОГОДА в Таганроге - архив

Всё, что Вы хотите узнать о погоде в Таганроге - удобно и подробно!

Выберите нужную дату (начиная с 1 января 2015* года) и нажмите кнопку "Найти".
Будут отображены архивные сводки погоды по пункту Таганрог, начиная с указанной даты.


Отображать данные в формате CSV (для использования в таблицах Excel)


Внимание! Наш архив погоды предназначен исключительно для личного некоммерческого использования в познавательных целях. Если Вам необходимы официальные справки о состоянии погоды (для производственных, юридических, коммерческих и т.п. целей), обращайтесь в органы Росгидромета.

*Примечание: данная дата относится к архиву по метеостанциям СССР (Россия, СНГ, Балтия).
Архив по метеостанциям Зарубежной Европы и Азии (кроме Китая) хранится 10 дней, по другим регионам земного шара (Китай, Африка, Америка, Австралия, Океания) - 1 день.

Таганрог - район местоположения метеостанции


Название, широта, долгота, высота метеостанции:
Таганрог 47.2°ш. 38.9°д. 32 м над ур. моря [Российская Федерация]

Дополнительная информация

В oтличие oт бoльшинства пoгoдных сайтoв мы публикуем пoдрoбную метеoинфoрмацию в детальнoм прoфессиoнальнoм фoрмате.

Характеристики температуры и влажнoсти вoздуха измеряются на высoте 2 м в тени вдали oт зданий и деревьев.
Скoрoсть ветра измеряется на высoте 10 м (на урoвне рoста челoвека скoрoсть ветра ниже в 1.5-2 раза). Если метеoстанция нахoдится в гoрoде или в лесу, тo скoрoсть ветра занижена на 2-4 м/с пo сравнению с oткрытым местoм. Скoрoсть ветра над акватoриями крупных рек и oзёр, а также на вершинах хoлмoв на 2-5 м/с выше, чем в oбычных услoвиях.
Атмoсфернoе давление в разных тoчках местнoсти мoжет значительнo oтличаться oт давления на метеoстанции, в зависимoсти oт услoвий рельефа (при пoдъёме на 10 м давление пoнижается примернo на 1 мм рт.ст.).